Wetbulb
57.20 52.98 50.26 52.14 43.85 40.84 36.59 40.95 44.83 50.99 56.42 59.86 61.19 59.49 55.84 55.94 54.97 50.23 59.68 61.41 63.13 62.35 63.79 66.28 69.37 69.58 69.90 70.40 71.02 71.71 72.49 73.04 73.50 73.74 73.33 73.28 73.24 73.12 73.02 72.95 72.68 72.88 72.59 72.63 72.38 72.31 72.21 71.62 71.62
55.69 54.17 51.63 47.83 41.17 36.78 38.83 44.83 49.95 54.91 59.07 59.57 59.04 59.43 57.11 54.03 56.86 57.39 58.32 60.89 61.64 61.49 61.99 64.63 67.58 68.45 68.82 69.50 69.50 69.49 70.00 70.71 71.97 72.64 73.21 73.27 73.33 73.37 73.21 73.11 72.45 72.36 71.84 71.82 72.21 72.11 72.14 71.79 70.88
51.91 53.87 46.61 43.12 38.06 36.88 38.01 46.29 51.88 56.66 60.43 57.72 54.20 55.49 54.13 52.65 55.08 55.39 59.41 61.60 59.79 58.75 60.31 62.00 65.38 66.57 67.16 67.82 68.60 69.01 68.70 68.80 68.83 69.71 71.15 72.10 72.72 72.89 72.97 72.61 72.35 72.32 71.85 71.74 71.65 72.07 72.42 71.68 69.95
49.09 47.42 46.31 40.18 36.67 41.45 42.30 48.22 51.95 55.16 56.51 56.28 54.51 50.26 52.30 54.03 55.02 58.00 60.43 60.82 59.47 58.30 59.40 62.25 63.86 64.99 65.27 65.95 66.81 66.63 66.97 66.31 65.36 66.41 67.36 69.06 70.24 71.35 71.89 71.83 71.73 71.88 71.77 71.75 71.64 72.36 72.23 70.94 69.65
45.56 44.46 39.51 37.52 38.59 44.15 46.09 47.35 51.23 53.49 55.05 56.30 55.82 51.23 50.74 54.21 57.72 59.92 60.09 59.17 57.10 55.79 57.29 60.50 62.60 63.50 63.51 63.76 64.51 64.54 64.82 64.71 63.95 64.71 65.72 67.59 67.45 69.67 70.12 70.65 70.89 71.01 71.34 71.50 71.62 71.73 71.28 70.72 69.80
41.84 42.89 37.05 34.67 39.40 45.19 45.68 48.85 52.71 53.87 55.18 55.96 53.55 50.35 50.02 55.18 56.30 57.20 57.80 56.86 57.31 55.32 55.01 55.38 59.06 61.36 63.18 63.18 63.77 64.34 64.20 63.04 62.32 62.64 63.10 63.58 63.68 64.57 66.14 68.58 67.79 69.08 69.16 69.45 70.84 70.50 70.52 70.23 69.92
39.50 38.30 34.77 36.42 39.79 42.71 45.43 48.72 49.90 49.99 50.28 50.18 55.45 47.90 50.45 51.13 55.06 55.48 54.68 53.66 53.00 52.96 52.12 51.78 52.13 55.02 58.77 62.36 63.45 63.61 63.17 61.29 60.73 60.95 61.21 61.35 61.96 61.82 62.44 62.86 63.23 63.65 66.49 68.21 68.68 68.81 69.25 69.57 69.60
41.39 39.51 35.68 35.85 39.22 39.00 46.21 47.87 48.93 48.22 45.39 50.61 53.44 48.25 46.48 51.78 54.44 53.31 52.60 51.27 50.18 50.06 50.05 49.84 50.22 50.72 50.63 53.83 61.47 61.67 62.11 59.35 59.05 59.36 59.10 58.73 58.68 59.03 59.69 60.18 61.14 61.75 62.84 64.11 66.03 66.23 67.30 67.96 68.16
42.08 36.12 33.68 36.49 40.55 42.10 45.67 45.97 48.68 50.19 47.68 48.83 50.87 50.58 52.99 54.96 53.49 50.68 49.32 48.47 48.32 49.66 48.45 48.72 49.12 49.36 49.94 52.21 55.60 56.06 58.78 57.80 56.55 55.16 56.72 54.57 53.78 54.18 54.84 57.71 58.78 60.09 60.29 59.92 60.23 60.53 61.72 63.18 65.74
39.83 35.19 37.58 42.56 42.13 43.33 44.67 45.25 46.01 45.51 45.29 47.70 50.27 53.59 54.31 53.91 51.13 49.10 47.26 46.36 46.05 46.08 47.71 47.73 48.25 48.46 49.31 53.04 49.74 50.25 52.80 52.84 51.92 51.19 50.81 51.72 51.12 52.24 53.21 54.32 56.77 56.54 56.44 55.92 56.40 57.09 57.24 57.71 58.39
38.59 37.99 41.49 42.79 43.44 42.26 41.49 44.68 45.46 44.12 42.04 47.06 48.20 50.61 51.72 50.56 47.56 46.74 46.16 46.03 45.45 45.73 46.91 47.76 47.94 48.16 47.97 48.85 48.25 48.50 49.42 50.39 50.45 49.94 49.68 49.36 49.50 49.23 49.64 50.21 51.29 49.45 52.29 49.93 51.46 51.99 52.65 53.20 54.91
39.63 43.21 43.40 43.66 43.38 42.83 41.33 43.69 44.46 41.52 44.75 49.30 49.53 49.49 47.85 46.85 46.06 46.01 45.51 45.20 45.03 45.15 46.07 47.11 47.50 47.41 47.44 48.08 47.80 47.74 49.21 49.13 48.97 49.18 49.17 47.48 46.73 46.71 47.28 48.32 47.74 47.06 48.09 47.80 48.53 48.95 49.39 49.69 51.15
42.56 44.00 45.38 45.69 43.97 42.03 45.96 43.91 43.59 42.54 46.74 48.84 48.70 47.76 45.83 45.40 45.23 45.50 45.29 45.40 44.89 44.72 45.44 46.11 47.11 47.03 47.28 47.73 47.38 47.40 47.80 47.97 47.57 48.16 48.59 47.09 45.49 45.22 46.33 46.38 45.49 45.48 46.55 46.59 46.65 46.69 46.19 46.80 47.80
45.75 44.66 44.72 44.99 45.63 44.40 43.82 43.27 44.03 43.56 46.96 46.90 46.59 44.55 44.59 45.25 44.89 43.99 43.75 43.48 44.36 45.05 44.99 45.68 45.87 46.42 46.58 46.67 46.59 46.47 47.06 47.53 47.01 47.22 47.80 47.24 45.41 45.08 45.08 44.48 43.92 43.80 44.45 44.59 44.40 44.10 44.57 45.15 46.12
46.94 42.94 44.40 45.06 44.84 44.51 43.69 39.19 40.94 45.26 46.31 44.61 44.16 44.02 43.96 44.75 44.75 43.88 43.83 43.75 44.35 44.36 45.29 45.56 46.14 45.30 45.39 45.76 46.35 46.58 47.25 47.04 46.37 46.75 47.13 46.74 45.91 44.48 43.66 43.04 42.89 42.88 43.37 43.01 43.05 42.84 42.93 42.58 43.99
41.87 41.03 36.71 43.00 43.59 45.52 43.53 37.77 41.92 44.73 44.42 42.01 42.11 42.61 43.51 43.49 44.11 43.41 43.11 42.98 43.11 43.91 44.23 44.49 46.47 44.04 44.55 44.55 45.69 46.54 46.28 45.85 45.77 46.00 46.26 46.14 45.63 43.99 42.29 41.98 41.62 42.26 42.19 42.15 41.48 41.15 40.22 40.62 41.12
37.42 33.25 36.81 40.53 43.94 43.58 40.91 36.82 41.20 42.86 43.69 42.16 42.57 42.46 42.76 41.81 41.80 42.10 42.26 42.07 42.02 42.55 43.48 43.11 42.95 42.22 43.03 43.62 44.21 44.96 45.57 45.14 44.58 44.98 44.98 45.29 44.47 43.24 41.35 40.88 40.65 41.09 40.57 40.38 39.71 39.41 39.13 38.69 38.99
34.46 35.02 35.26 36.33 39.70 39.55 36.49 35.14 38.48 41.61 42.48 42.45 41.97 41.92 41.15 41.14 41.16 41.84 41.89 41.83 41.62 41.47 42.42 42.58 42.37 41.83 41.77 42.44 42.79 43.46 43.95 44.19 44.38 43.89 44.14 44.52 43.00 41.89 40.41 40.02 39.71 39.90 39.68 38.68 38.47 37.72 38.76 39.15 38.99
40.79 38.26 36.17 37.17 43.44 40.82 38.13 35.52 38.77 39.97 39.50 38.87 40.03 40.80 40.15 40.84 40.96 41.62 41.47 40.67 40.45 40.72 41.23 41.18 41.00 40.39 40.68 40.19 40.10 40.71 40.57 41.31 41.96 43.16 43.62 43.35 41.54 40.85 39.10 38.91 38.98 39.16 38.70 38.54 38.67 37.88 37.04 37.79 39.19
41.44 39.03 37.32 40.39 42.96 40.62 37.91 37.88 39.47 40.11 41.63 41.78 41.55 40.60 39.84 39.05 39.95 40.92 41.13 40.88 40.62 40.29 40.56 40.53 40.59 40.16 39.79 39.35 39.32 40.30 40.49 40.06 40.39 41.46 41.67 42.55 40.22 39.64 39.44 38.28 37.93 37.95 38.22 37.78 37.62 37.46 36.49 37.28 38.64
39.81 38.22 37.44 36.90 39.20 37.77 37.13 34.60 37.61 40.30 41.92 42.49 42.06 42.18 40.95 39.78 39.39 40.30 40.48 39.53 39.21 39.13 39.14 39.69 39.82 39.69 40.05 40.16 39.92 39.86 40.19 39.66 39.25 38.84 38.95 40.46 39.41 39.10 38.75 37.94 37.38 37.78 38.17 36.83 36.85 37.07 36.58 34.54 36.88
35.09 40.37 39.56 37.86 34.82 29.65 37.55 27.05 36.54 39.22 39.58 41.45 42.77 39.30 39.41 40.11 40.83 40.99 39.70 38.70 38.82 37.89 38.78 38.42 39.33 39.26 40.27 40.78 39.45 38.28 37.01 36.28 37.13 37.41 37.87 38.59 39.16 37.96 38.20 37.40 37.06 36.73 36.61 36.16 36.23 37.11 36.61 36.70 34.70
37.16 41.61 38.92 37.39 32.49 30.42 32.76 29.77 31.67 38.10 36.93 38.91 40.19 39.61 39.25 39.85 39.74 38.74 38.28 38.46 38.01 38.31 36.91 37.37 38.73 39.05 39.26 39.19 39.12 38.27 37.36 37.47 37.38 36.73 36.49 36.72 37.30 37.25 36.69 36.01 36.19 34.87 34.57 34.94 35.49 35.55 35.95 36.59 35.06
41.74 38.50 37.19 35.25 31.89 23.16 32.53 30.75 28.08 31.93 36.83 39.42 38.38 38.80 38.83 37.34 37.00 37.01 37.75 38.63 38.42 38.59 36.78 36.54 37.68 37.34 38.26 38.52 37.75 37.13 35.77 35.57 35.19 35.09 34.95 35.36 35.52 35.17 34.54 34.82 34.70 35.29 33.91 34.65 35.02 35.68 35.45 34.60 34.94
37.78 33.03 24.42 23.16 22.92 22.78 33.60 29.91 31.76 36.54 38.35 40.35 37.17 36.84 36.11 36.23 35.45 35.47 35.00 35.59 36.74 35.61 34.51 35.48 35.42 34.93 35.92 36.72 36.76 36.24 35.79 35.38 34.34 34.11 33.59 33.15 33.58 32.35 32.34 33.30 33.48 33.57 33.51 33.69 34.48 34.84 33.90 33.73 33.63
35.50 33.65 26.14 21.94 21.57 23.34 32.81 25.94 29.48 37.85 38.20 37.83 36.29 35.16 35.41 34.82 34.88 35.01 35.73 34.97 34.20 34.15 34.20 33.89 34.61 34.01 34.73 35.49 35.29 35.66 36.32 35.74 34.76 33.57 33.01 33.09 32.30 31.66 32.39 32.83 33.05 31.73 31.65 32.42 33.80 34.37 33.15 33.21 32.16
34.94 30.34 36.23 28.65 27.35 22.02 25.93 29.91 36.75 37.66 35.80 35.81 34.69 34.60 32.75 33.24 35.06 35.52 34.86 34.70 34.32 34.27 33.33 33.43 33.05 33.44 33.43 33.98 34.97 34.86 34.96 34.53 33.83 33.03 32.61 31.87 31.11 32.08 32.13 31.10 30.93 29.82 29.85 32.08 32.77 33.11 31.82 32.31 30.53
35.91 37.37 28.32 27.65 21.42 19.44 23.54 25.94 26.71 33.72 34.16 35.55 33.72 33.48 33.06 34.28 34.00 32.96 32.66 32.75 33.02 32.26 33.06 33.12 32.70 32.70 32.84 32.55 33.43 33.33 33.50 33.69 32.73 31.62 30.82 30.53 29.83 30.10 30.17 28.30 28.37 27.89 28.10 30.49 31.59 31.86 30.26 30.08 29.87
33.22 31.51 32.42 31.34 26.80 20.55 19.18 21.44 33.35 35.73 36.64 35.12 35.15 34.33 33.98 33.39 32.76 30.87 29.17 29.67 30.35 31.13 30.83 31.28 31.15 31.13 31.24 31.39 32.43 32.08 32.53 33.10 31.88 30.81 30.00 29.82 29.41 29.22 29.08 27.26 27.31 26.72 26.76 27.31 28.15 28.58 28.51 25.90 24.85
35.49 33.03 32.99 23.54 24.87 25.27 22.29 23.70 38.17 38.33 38.80 38.34 36.74 35.37 33.82 33.13 31.29 29.77 29.21 27.05 25.73 26.59 28.56 29.26 29.85 30.65 31.18 32.15 32.59 31.60 32.30 31.95 30.71 30.16 30.06 30.08 29.15 29.16 28.51 26.40 26.60 26.37 26.54 26.81 26.49 26.84 26.21 24.21 22.48
MSLP
1010.98 1010.53 1010.54 1010.83 1011.96 1012.14 1011.71 1010.25 1009.13 1009.02 1010.41 1010.17 1010.46 1011.37 1012.89 1014.20 1015.23 1017.06 1017.14 1017.01 1016.99 1017.24 1017.12 1016.77 1016.43 1016.22 1015.80 1015.79 1015.78 1015.54 1015.41 1015.19 1015.15 1015.07 1014.96 1014.86 1014.80 1014.81 1014.88 1014.83 1014.70 1014.70 1014.79 1014.76 1014.66 1014.65 1014.61 1014.56 1014.53
1010.71 1010.32 1010.58 1011.21 1011.89 1012.00 1010.98 1009.58 1009.05 1008.61 1010.06 1010.82 1011.48 1012.47 1013.76 1015.49 1016.00 1016.81 1017.09 1017.09 1017.27 1017.38 1017.20 1017.05 1016.66 1016.41 1016.18 1016.22 1016.19 1015.94 1015.86 1015.67 1015.45 1015.26 1015.04 1014.89 1014.82 1014.84 1014.91 1014.97 1014.87 1014.68 1014.56 1014.66 1014.67 1014.62 1014.60 1014.51 1014.50
1010.41 1010.67 1011.55 1011.84 1011.89 1011.54 1010.41 1008.86 1008.48 1008.90 1009.28 1009.59 1011.85 1013.69 1014.91 1016.14 1016.51 1016.83 1016.98 1017.17 1017.47 1017.50 1017.41 1017.05 1016.79 1016.68 1016.61 1016.66 1016.39 1016.21 1016.14 1015.90 1015.83 1015.59 1015.40 1015.13 1015.08 1014.99 1014.97 1014.99 1014.99 1014.82 1014.63 1014.60 1014.54 1014.59 1014.56 1014.42 1014.50
1010.49 1011.32 1012.04 1011.88 1011.64 1010.47 1009.36 1008.33 1008.08 1008.50 1009.23 1009.80 1011.64 1013.99 1015.60 1016.50 1016.54 1016.62 1016.91 1017.15 1017.41 1017.44 1017.34 1017.34 1017.06 1016.98 1016.88 1016.71 1016.46 1016.54 1016.28 1016.21 1016.02 1015.78 1015.61 1015.42 1015.21 1015.21 1015.16 1015.05 1015.04 1015.01 1014.82 1014.64 1014.51 1014.56 1014.62 1014.42 1014.41
1010.84 1011.94 1012.57 1012.32 1011.47 1010.18 1008.63 1008.07 1008.42 1008.64 1009.58 1010.63 1011.29 1014.53 1015.75 1016.60 1016.76 1016.73 1016.95 1017.22 1017.60 1017.81 1017.64 1017.54 1017.55 1017.32 1017.07 1016.88 1016.79 1016.63 1016.47 1016.39 1016.17 1015.99 1015.80 1015.66 1015.60 1015.37 1015.24 1015.19 1015.12 1015.10 1014.96 1014.73 1014.64 1014.57 1014.56 1014.34 1014.33
1011.52 1012.51 1013.04 1012.69 1011.53 1009.94 1008.83 1008.57 1008.53 1009.22 1010.28 1010.97 1012.42 1014.23 1016.15 1016.43 1016.72 1016.87 1017.12 1017.46 1017.77 1018.22 1018.35 1018.19 1017.99 1017.80 1017.50 1017.20 1016.94 1016.63 1016.63 1016.61 1016.39 1016.22 1016.15 1016.04 1015.99 1015.83 1015.61 1015.60 1015.52 1015.26 1015.13 1014.70 1014.56 1014.51 1014.45 1014.26 1014.16
1011.81 1012.76 1012.92 1012.31 1011.27 1010.08 1009.16 1009.10 1009.65 1010.42 1010.88 1011.61 1012.38 1014.51 1016.16 1016.67 1016.90 1016.93 1017.46 1018.04 1018.35 1018.85 1018.87 1018.75 1018.54 1018.09 1017.68 1017.35 1017.14 1016.97 1016.88 1016.95 1016.81 1016.59 1016.55 1016.34 1016.33 1016.22 1016.04 1016.07 1015.87 1015.61 1015.28 1015.00 1014.65 1014.43 1014.35 1014.26 1014.09
1011.53 1012.49 1012.66 1011.89 1011.15 1010.57 1009.64 1009.85 1010.54 1011.18 1012.12 1012.30 1012.76 1014.27 1015.77 1016.08 1016.71 1017.18 1017.95 1018.55 1019.07 1019.39 1019.43 1019.15 1018.74 1018.30 1018.03 1017.83 1017.44 1017.29 1017.41 1017.33 1017.26 1017.11 1016.95 1016.79 1016.66 1016.59 1016.43 1016.39 1016.18 1015.89 1015.62 1015.34 1015.06 1014.74 1014.41 1014.22 1014.06
1010.90 1012.29 1012.63 1011.65 1010.82 1010.34 1009.90 1010.29 1011.31 1012.06 1012.51 1013.19 1013.44 1013.78 1014.13 1015.78 1016.74 1017.70 1018.50 1018.98 1019.32 1019.70 1019.80 1019.53 1019.13 1018.50 1018.18 1018.15 1018.01 1017.95 1017.96 1018.01 1017.86 1017.65 1017.38 1017.30 1017.23 1016.99 1016.87 1016.68 1016.38 1016.22 1016.16 1015.91 1015.51 1015.20 1014.89 1014.56 1014.22
1011.11 1012.07 1011.65 1010.84 1010.43 1010.41 1010.08 1010.55 1011.51 1012.54 1013.30 1014.22 1014.29 1014.54 1015.12 1016.09 1017.10 1017.87 1018.47 1019.00 1019.48 1019.84 1019.95 1019.82 1019.52 1019.00 1018.52 1018.43 1018.61 1018.60 1018.61 1018.70 1018.62 1018.39 1018.16 1018.03 1017.92 1017.56 1017.30 1017.17 1016.86 1016.63 1016.70 1016.48 1016.07 1015.66 1015.32 1014.99 1014.86
1011.02 1011.40 1010.83 1010.33 1010.04 1010.11 1010.51 1011.06 1011.83 1012.56 1013.42 1013.81 1014.37 1014.88 1015.48 1016.13 1016.99 1017.69 1018.48 1018.90 1019.30 1019.68 1019.89 1019.93 1019.90 1019.64 1019.31 1019.12 1019.16 1019.14 1019.16 1019.25 1019.13 1018.97 1018.86 1018.69 1018.46 1018.33 1017.96 1017.73 1017.45 1017.41 1017.05 1017.09 1016.71 1016.34 1016.00 1015.76 1015.35
1011.05 1010.82 1010.62 1010.25 1010.09 1010.02 1010.71 1011.65 1012.65 1013.17 1013.34 1013.38 1014.59 1015.26 1015.73 1016.03 1016.65 1017.17 1017.98 1018.65 1019.01 1019.51 1019.94 1020.03 1019.94 1019.95 1019.88 1019.63 1019.61 1019.71 1019.53 1019.77 1019.70 1019.55 1019.38 1019.14 1019.03 1018.98 1018.79 1018.55 1018.29 1018.11 1017.83 1017.52 1017.38 1016.88 1016.71 1016.29 1015.85
1011.00 1010.75 1010.22 1009.97 1010.11 1010.21 1010.63 1011.88 1013.01 1014.07 1014.26 1014.53 1015.00 1015.61 1016.29 1016.90 1017.54 1018.14 1018.71 1019.36 1019.59 1019.75 1020.12 1020.16 1019.93 1020.00 1019.96 1019.86 1019.81 1019.69 1019.99 1020.25 1020.24 1020.12 1019.84 1019.55 1019.29 1019.45 1019.39 1019.21 1019.10 1018.78 1018.44 1018.07 1017.79 1017.38 1017.09 1016.68 1016.20
1011.33 1010.89 1010.40 1009.95 1009.90 1010.33 1011.20 1012.52 1012.46 1014.47 1014.40 1014.88 1015.27 1015.97 1016.48 1016.95 1017.62 1018.27 1018.75 1019.40 1019.59 1019.88 1020.37 1020.57 1020.49 1020.25 1020.09 1019.92 1019.81 1019.78 1019.92 1020.30 1020.37 1020.34 1020.32 1020.02 1019.83 1019.85 1019.86 1019.74 1019.61 1019.35 1018.97 1018.73 1018.45 1018.11 1017.51 1017.04 1016.52
1011.58 1011.42 1010.82 1009.91 1009.65 1009.93 1010.68 1012.88 1012.77 1013.40 1014.35 1014.92 1015.57 1015.91 1016.34 1016.69 1017.22 1017.86 1018.69 1019.49 1019.84 1020.35 1020.46 1020.49 1020.49 1020.53 1020.47 1020.30 1020.08 1020.11 1020.25 1020.00 1020.09 1020.22 1020.15 1020.24 1020.31 1020.41 1020.41 1020.18 1019.91 1019.74 1019.42 1018.96 1018.67 1018.34 1017.92 1017.40 1016.78
1012.41 1012.09 1011.71 1010.03 1009.91 1009.68 1010.44 1011.67 1012.54 1013.29 1014.02 1015.01 1015.49 1015.93 1016.17 1016.61 1017.28 1018.04 1018.68 1019.38 1020.00 1020.25 1020.62 1020.79 1020.79 1021.04 1020.99 1020.68 1020.40 1020.45 1020.74 1020.71 1020.66 1020.57 1020.56 1020.46 1020.59 1020.75 1020.80 1020.63 1020.51 1020.32 1019.83 1019.37 1019.08 1018.85 1018.21 1017.74 1017.14
1013.23 1012.93 1012.21 1010.92 1010.12 1010.08 1010.59 1011.54 1012.20 1013.11 1013.77 1014.63 1015.10 1015.37 1016.18 1017.31 1017.90 1018.38 1018.96 1019.41 1019.89 1020.21 1020.73 1021.02 1021.22 1021.38 1021.46 1021.30 1021.05 1020.91 1021.06 1021.22 1021.24 1021.01 1021.09 1021.16 1021.23 1021.24 1021.08 1020.97 1020.97 1020.73 1020.19 1019.96 1019.91 1019.58 1018.98 1018.16 1017.45
1013.60 1013.20 1012.26 1011.48 1010.64 1010.56 1011.13 1011.86 1012.47 1013.14 1013.63 1013.74 1014.39 1015.36 1016.12 1017.26 1018.29 1018.95 1019.58 1020.05 1020.46 1020.77 1020.96 1021.29 1021.62 1021.76 1021.57 1021.46 1021.33 1021.46 1021.46 1021.57 1021.49 1021.53 1021.46 1021.68 1021.98 1021.86 1021.64 1021.43 1021.27 1020.91 1020.50 1020.52 1020.45 1020.07 1019.46 1018.76 1018.05
1013.17 1012.89 1012.54 1011.61 1010.88 1010.77 1011.37 1012.20 1012.70 1013.08 1013.80 1014.17 1014.54 1015.22 1016.12 1017.27 1018.30 1019.07 1019.64 1020.16 1020.66 1021.07 1021.56 1021.91 1022.09 1022.39 1022.13 1021.98 1021.82 1021.83 1022.04 1022.03 1021.89 1021.80 1021.86 1022.11 1022.41 1022.47 1022.24 1022.02 1021.75 1021.37 1021.06 1020.95 1020.75 1020.50 1019.93 1019.28 1018.41
1012.92 1012.62 1012.08 1011.62 1011.45 1011.47 1011.58 1012.08 1012.07 1012.77 1012.81 1012.90 1013.29 1014.62 1015.92 1017.56 1018.62 1019.18 1019.78 1020.21 1020.77 1021.34 1021.71 1022.10 1022.33 1022.31 1022.47 1022.47 1022.46 1022.41 1022.29 1022.38 1022.35 1022.19 1022.24 1022.47 1022.62 1022.73 1022.69 1022.60 1022.31 1022.07 1021.77 1021.58 1021.13 1020.82 1020.55 1020.05 1019.46
1012.32 1012.25 1012.20 1012.35 1012.14 1012.13 1012.14 1011.88 1011.62 1011.90 1012.32 1012.83 1013.52 1014.44 1015.95 1016.65 1017.88 1019.05 1019.94 1020.75 1021.25 1021.71 1022.20 1022.61 1022.81 1022.85 1022.74 1022.74 1022.71 1022.50 1022.37 1022.65 1022.74 1022.91 1022.90 1022.95 1023.15 1023.13 1023.02 1023.04 1022.86 1022.41 1022.18 1022.13 1021.81 1021.37 1021.09 1020.86 1020.43
1012.13 1012.10 1012.35 1012.74 1013.13 1013.81 1013.36 1012.65 1011.73 1011.65 1012.04 1012.43 1012.99 1014.13 1015.62 1016.90 1018.20 1019.10 1020.15 1020.90 1021.47 1022.08 1022.32 1022.71 1023.03 1023.18 1023.15 1022.78 1022.98 1023.07 1023.16 1023.21 1023.40 1023.53 1023.80 1023.68 1023.60 1023.60 1023.50 1023.40 1023.24 1023.17 1022.92 1022.56 1022.24 1021.89 1021.68 1021.38 1020.87
1012.07 1012.22 1012.72 1013.30 1013.99 1014.51 1014.38 1014.34 1011.90 1011.89 1012.57 1012.72 1012.85 1014.12 1015.70 1017.03 1018.20 1019.25 1020.19 1020.98 1021.60 1021.99 1022.46 1022.83 1023.13 1023.45 1023.52 1023.28 1023.27 1023.28 1023.61 1023.58 1023.72 1023.90 1024.07 1024.40 1024.27 1024.25 1024.15 1023.91 1023.71 1023.59 1023.37 1023.12 1022.55 1022.14 1021.87 1021.68 1021.53
1012.28 1012.82 1013.50 1014.20 1014.94 1015.23 1014.96 1014.55 1013.39 1013.48 1013.87 1013.66 1014.23 1015.23 1016.49 1017.68 1018.95 1020.04 1020.81 1021.30 1021.85 1022.10 1022.49 1022.80 1023.13 1023.56 1023.67 1023.62 1023.72 1023.78 1023.87 1024.01 1024.33 1024.50 1024.67 1024.93 1024.93 1025.00 1024.88 1024.48 1024.26 1023.94 1023.76 1023.51 1023.11 1022.66 1022.30 1022.07 1022.04
1012.48 1013.89 1015.27 1015.86 1016.14 1015.84 1015.30 1015.20 1014.39 1014.62 1014.64 1014.45 1015.45 1016.51 1017.36 1018.10 1019.31 1020.36 1021.08 1021.55 1021.83 1022.30 1022.84 1023.15 1023.46 1023.75 1023.92 1024.03 1024.14 1024.26 1024.32 1024.38 1024.65 1024.97 1025.19 1025.32 1025.48 1025.68 1025.50 1024.98 1024.82 1024.57 1024.41 1024.12 1023.59 1023.18 1022.82 1022.66 1022.45
1012.40 1013.87 1015.54 1015.95 1016.48 1016.33 1015.62 1015.38 1015.18 1015.59 1015.95 1015.78 1016.57 1017.66 1018.62 1019.35 1020.17 1020.75 1021.08 1021.77 1022.39 1022.83 1023.13 1023.46 1023.86 1024.35 1024.12 1024.32 1024.69 1024.72 1024.87 1025.03 1025.35 1025.33 1025.50 1025.79 1025.94 1026.02 1025.77 1025.42 1025.29 1025.27 1024.97 1024.54 1024.05 1023.64 1023.28 1023.12 1022.95
1012.51 1013.54 1014.10 1015.67 1016.31 1016.55 1016.13 1015.69 1016.18 1016.57 1016.93 1017.18 1017.78 1018.64 1019.53 1020.02 1020.29 1020.74 1021.58 1022.12 1022.70 1023.07 1023.60 1023.85 1023.71 1024.34 1024.81 1024.92 1024.88 1025.36 1025.31 1025.44 1025.83 1025.95 1025.92 1026.20 1026.35 1026.10 1025.84 1025.83 1025.83 1025.73 1025.41 1024.80 1024.31 1023.93 1023.70 1023.53 1023.46
1012.00 1012.95 1014.45 1015.82 1016.83 1016.90 1016.38 1015.91 1015.76 1016.58 1017.03 1017.57 1018.16 1018.77 1019.50 1020.18 1020.94 1021.63 1022.28 1022.81 1023.15 1023.74 1024.11 1024.09 1024.37 1024.62 1025.30 1025.49 1025.27 1025.78 1025.94 1025.99 1026.10 1026.33 1026.25 1026.56 1026.70 1026.45 1026.33 1026.52 1026.28 1026.15 1025.74 1025.09 1024.70 1024.38 1024.21 1024.04 1023.96
1012.87 1013.30 1014.36 1015.37 1016.54 1016.97 1017.04 1015.73 1014.67 1015.30 1016.12 1016.89 1017.59 1018.41 1018.89 1019.73 1021.09 1022.17 1022.89 1023.39 1023.87 1023.91 1024.54 1024.69 1024.71 1025.17 1025.62 1025.88 1025.97 1026.30 1026.16 1026.15 1026.33 1026.53 1026.71 1026.68 1026.89 1026.92 1026.83 1026.84 1026.59 1026.42 1026.15 1025.86 1025.46 1025.04 1024.92 1024.85 1024.73
1013.42 1014.00 1014.71 1015.79 1016.54 1016.91 1017.18 1014.66 1014.39 1014.46 1015.17 1016.02 1016.82 1017.51 1018.72 1019.59 1020.82 1021.83 1022.58 1023.30 1024.09 1024.32 1024.80 1025.10 1025.09 1025.18 1025.63 1025.98 1026.20 1026.47 1026.28 1026.40 1026.63 1026.82 1026.87 1026.96 1027.10 1027.23 1027.24 1027.21 1026.98 1026.77 1026.45 1026.20 1025.95 1025.67 1025.55 1025.43 1025.26
Wind_Speed
8 7 1 3 5 6 4 6 3 4 5 7 5 7 10 8 2 3 2 3 3 3 5 7 10 12 13 13 12 13 13 13 11 8 7 6 6 5 5 5 5 5 6 7 6 5 5 5 4
5 5 4 2 4 4 6 5 4 5 16 18 13 12 8 4 5 5 1 2 5 3 4 6 11 12 13 13 12 13 13 13 13 13 10 8 6 5 4 4 4 3 3 4 5 5 3 4 4
2 0 4 4 2 4 4 4 8 9 19 5 10 8 5 4 3 3 2 2 5 6 5 8 11 11 12 11 12 13 14 14 14 13 12 12 11 9 8 6 5 4 3 3 3 4 2 2 4
3 5 5 4 4 6 4 5 4 9 7 9 9 12 6 1 3 6 4 10 5 6 6 6 12 10 11 12 13 13 14 15 15 15 15 12 11 10 10 8 7 7 7 6 6 5 6 4 5
4 3 4 2 4 6 5 5 4 5 4 6 3 6 6 4 7 8 9 8 7 6 7 7 7 8 11 12 13 14 16 15 17 18 18 17 17 14 10 9 10 11 11 10 8 7 7 6 6
5 4 4 3 5 7 5 5 5 8 5 7 10 8 3 8 6 11 10 8 6 7 6 6 9 8 5 10 12 13 15 16 18 18 18 18 18 18 17 15 14 13 13 13 11 9 8 8 8
5 4 3 3 5 6 1 1 9 6 4 7 5 7 5 5 8 10 9 8 8 6 6 6 5 7 8 8 11 13 15 17 18 18 18 18 19 19 19 19 20 18 16 15 14 12 11 9 8
5 5 4 3 5 1 5 4 4 7 4 5 3 7 7 10 11 11 9 8 8 6 6 6 6 6 6 7 14 16 15 17 17 18 18 18 17 18 19 18 19 19 19 19 18 17 15 11 9
3 6 2 4 6 6 3 4 4 4 6 5 3 4 12 18 14 11 9 7 6 6 6 6 7 7 6 7 10 12 16 17 16 14 18 12 7 9 12 16 19 20 21 21 21 21 19 18 12
5 4 6 3 1 3 5 4 6 5 3 6 10 12 16 17 13 11 7 7 6 5 5 6 7 7 7 7 7 6 8 6 7 9 9 6 7 9 10 13 19 19 21 20 21 20 19 14 8
1 6 4 2 1 1 3 4 3 8 4 6 14 16 12 17 10 10 7 8 7 6 5 6 6 7 7 6 4 3 3 3 5 8 7 6 6 6 6 6 7 8 15 8 10 10 8 10 8
2 3 3 5 4 3 3 4 5 4 2 12 10 7 8 15 12 13 12 9 8 8 6 5 6 6 6 4 4 4 4 4 4 6 7 7 5 6 7 6 7 7 7 9 8 6 9 10 10
2 3 2 4 3 3 7 5 6 5 6 9 10 10 9 9 8 7 8 7 7 8 6 5 6 5 4 5 3 4 5 4 4 6 8 6 7 6 6 7 7 7 7 8 8 8 8 9 9
3 5 7 4 6 4 8 6 8 5 7 9 11 10 9 11 9 7 8 7 7 7 7 5 6 5 5 3 4 4 4 4 4 6 6 8 6 6 6 6 7 7 7 7 7 8 8 9 9
6 6 8 7 6 5 6 4 6 15 10 12 10 9 8 9 9 9 8 8 8 6 6 6 6 6 5 3 3 4 4 4 5 6 8 8 9 8 7 7 7 7 7 8 7 8 8 8 9
5 3 3 6 2 6 11 10 4 16 17 12 11 9 11 9 10 8 9 9 8 8 8 6 6 7 6 6 4 4 4 4 5 6 6 8 9 8 7 7 8 7 7 8 8 9 9 8 9
3 3 5 10 4 5 8 5 6 12 16 16 15 14 12 8 6 8 9 9 8 8 8 7 8 8 7 6 5 6 6 5 4 5 5 7 9 8 7 7 7 8 7 8 9 8 9 9 10
4 3 5 6 6 4 2 1 4 12 14 19 16 13 10 12 8 9 10 8 8 8 8 8 6 7 6 4 4 4 5 6 6 5 6 8 7 8 7 6 6 6 7 8 8 10 9 9 11
8 6 8 4 5 2 4 4 9 9 5 8 11 13 11 12 8 10 9 9 9 8 8 7 8 7 6 5 3 4 3 3 5 6 9 10 9 9 9 7 7 7 8 10 11 9 11 9 12
8 7 7 6 3 1 5 7 9 13 18 18 18 15 13 10 11 12 11 8 7 7 8 8 7 7 5 3 2 1 2 3 3 5 9 9 10 10 9 8 8 9 8 10 10 11 9 7 11
5 4 3 3 5 1 3 5 4 6 7 5 7 8 11 20 17 14 11 8 8 8 8 9 7 6 5 5 2 2 3 3 6 6 5 7 9 9 8 8 8 9 8 8 9 10 11 9 9
3 2 2 3 6 2 5 8 7 4 5 10 13 12 17 18 14 12 13 9 9 7 8 8 7 6 6 5 5 6 5 6 4 4 5 6 7 9 9 8 8 9 7 8 8 8 8 8 8
5 3 3 1 2 2 4 4 4 7 8 10 7 12 15 15 15 14 12 11 8 8 8 7 7 6 6 5 5 4 6 5 4 5 7 7 7 9 9 9 9 8 6 8 9 9 9 7 7
2 4 6 5 3 2 8 7 4 2 3 6 6 13 15 14 14 14 12 12 9 7 8 7 8 7 7 6 6 7 7 6 6 7 6 4 5 6 9 9 8 9 8 9 8 8 9 8 7
3 5 4 4 2 6 3 3 7 4 6 5 11 13 13 15 15 14 12 9 8 7 7 7 7 8 7 7 7 7 6 7 8 6 5 5 5 6 7 8 8 7 8 8 8 7 8 8 7
7 9 6 6 3 4 3 5 4 3 5 12 13 13 13 14 12 12 11 8 8 8 9 9 7 8 9 8 7 6 7 6 6 6 5 6 5 5 6 7 7 9 8 7 7 5 6 7 7
5 4 6 3 2 1 5 0 2 4 6 10 12 11 8 9 12 11 8 8 8 8 7 8 9 9 7 6 6 6 6 7 7 7 5 5 5 5 7 7 8 8 8 8 8 6 8 7 7
7 5 1 2 3 5 3 5 6 6 7 9 11 14 11 8 9 9 8 8 7 7 7 9 8 9 6 6 6 5 5 6 6 5 6 6 4 5 7 8 7 8 8 10 9 6 8 8 7
4 2 0 3 5 4 4 8 7 10 12 15 14 11 17 15 12 9 7 7 6 7 7 6 7 7 6 5 6 5 5 6 6 5 5 5 5 5 6 8 7 8 8 8 8 9 10 10 9
5 6 5 4 4 3 4 13 5 9 13 12 13 16 9 12 13 11 10 9 6 6 6 5 6 6 5 4 4 4 5 5 5 4 5 5 5 5 7 7 6 7 7 7 7 8 8 10 10
Wind_Direction
318 313 241 42 53 70 274 266 241 129 81 336 75 104 97 35 51 186 235 53 68 17 346 25 45 44 53 55 52 48 48 45 43 56 58 61 64 58 51 53 68 55 23 14 28 29 30 33 27
322 324 38 78 87 64 289 255 83 121 134 116 82 91 56 78 68 109 184 22 79 67 23 41 51 52 52 52 53 52 48 45 40 35 38 40 48 48 35 19 18 27 41 1 352 358 7 10 359
284 128 78 94 122 174 216 248 142 143 163 130 112 48 86 92 108 113 104 165 99 77 63 53 56 57 60 60 60 55 49 43 37 33 28 30 26 23 20 12 350 339 322 313 315 316 292 328 317
38 11 23 95 235 263 255 254 190 132 125 71 114 79 82 343 116 143 158 89 87 65 63 56 50 58 64 64 65 63 62 51 38 34 25 18 20 17 11 3 350 333 317 304 303 308 322 291 290
50 55 38 338 293 275 240 260 7 81 78 50 113 112 85 89 129 131 113 96 85 58 35 38 40 46 65 69 70 67 61 53 44 39 39 41 30 29 15 11 11 356 336 316 302 296 293 292 279
34 91 36 321 295 288 317 358 89 82 81 123 85 94 98 134 146 118 109 96 80 68 43 34 29 10 49 70 69 68 64 54 46 42 40 39 35 31 30 33 13 10 358 335 305 290 281 280 273
110 87 225 260 266 292 30 30 44 33 45 33 102 86 140 149 162 123 115 104 86 70 54 38 12 17 22 50 57 60 68 57 47 44 40 39 35 34 33 31 25 16 3 358 8 341 292 284 279
108 93 5 308 310 309 343 61 104 47 29 330 131 149 175 171 154 124 112 99 81 58 38 24 11 22 26 33 52 54 64 55 50 43 41 39 36 29 27 24 17 15 13 12 9 8 4 338 296
103 61 319 292 344 309 226 112 20 32 78 42 14 132 136 145 131 117 114 104 84 59 34 19 13 21 29 45 43 44 57 52 46 39 39 33 27 21 19 19 20 21 23 18 17 16 11 5 358
104 113 218 223 281 334 342 40 129 102 77 54 68 97 121 138 138 135 131 107 90 69 38 24 16 21 33 49 33 34 51 51 45 35 32 28 21 25 24 17 24 26 18 12 8 8 7 6 353
290 173 211 243 234 106 40 34 17 135 108 188 156 150 139 143 138 134 121 122 120 117 69 34 20 19 33 37 34 28 42 47 40 37 35 28 25 11 15 14 22 11 14 10 4 1 5 355 354
71 10 2 313 314 114 111 95 46 15 325 130 142 132 127 135 142 138 139 138 122 98 90 59 44 32 32 46 46 35 52 47 45 43 42 40 33 21 16 24 22 16 5 6 2 2 357 354 350
104 313 304 303 295 297 86 104 131 37 72 100 111 106 118 112 108 97 104 100 100 94 95 68 60 47 49 67 56 56 58 65 49 46 49 45 41 30 19 26 18 16 8 8 2 359 353 348 345
285 303 296 290 278 222 125 157 97 236 147 124 129 140 137 131 136 117 111 117 109 107 97 63 48 34 44 68 78 79 90 97 65 62 54 48 42 35 31 27 20 16 15 11 1 359 350 347 339
307 320 322 262 241 222 132 118 221 167 157 149 157 159 154 152 137 139 130 119 118 94 93 80 59 24 27 36 52 69 82 93 92 78 66 53 46 44 30 25 21 13 6 11 3 1 355 348 342
336 9 318 288 156 248 144 238 198 166 159 169 173 165 160 161 145 139 119 116 110 104 91 65 41 15 13 24 43 63 61 73 70 67 57 56 60 50 38 31 20 359 8 10 7 1 357 350 343
336 244 242 310 177 256 174 213 191 176 166 178 186 182 165 137 134 129 125 127 118 113 103 73 49 36 29 35 41 51 67 63 51 59 55 50 61 51 46 35 21 10 14 18 9 359 358 347 341
234 263 266 229 294 61 316 211 172 187 182 190 187 184 163 153 152 121 114 103 97 96 98 91 70 45 31 36 39 50 66 63 52 46 49 49 61 47 42 31 20 17 21 17 7 3 358 356 338
276 269 241 265 280 32 227 279 232 201 214 204 197 189 167 152 134 121 117 112 103 89 87 78 69 31 31 15 2 35 61 57 53 55 49 61 47 45 35 27 16 18 20 17 7 1 356 357 347
249 266 283 267 40 305 309 267 228 176 214 208 196 192 163 128 135 129 128 115 100 106 104 92 83 71 50 35 342 75 116 61 75 61 53 68 57 43 38 28 24 12 20 14 9 9 360 2 359
237 228 290 282 330 89 315 286 187 216 222 236 205 203 149 150 151 138 128 116 105 96 96 96 86 72 54 43 30 40 72 52 52 34 48 55 59 47 38 30 21 24 20 12 5 7 5 360 9
249 1 116 35 60 260 37 291 261 222 229 216 222 160 155 154 137 128 125 121 111 110 102 97 89 76 63 56 55 62 67 73 62 61 43 49 58 44 39 32 25 23 13 17 4 2 359 358 3
207 106 72 25 50 95 232 216 284 360 314 315 239 156 150 141 138 136 130 121 118 108 111 106 94 66 41 64 76 78 73 81 75 53 56 36 35 41 34 30 29 26 13 7 4 1 5 11 357
160 59 27 21 81 336 212 197 295 16 257 302 43 130 136 124 118 116 117 119 114 114 112 111 98 69 46 62 60 72 84 82 68 61 55 36 35 44 26 28 27 23 13 3 359 3 7 7 1
128 67 354 325 343 224 202 236 251 339 322 260 139 130 126 124 120 122 125 132 138 120 112 111 97 74 52 52 54 60 72 77 80 70 57 39 50 41 22 26 23 23 14 357 359 7 9 3 1
176 150 169 228 214 247 341 258 279 53 41 78 101 115 117 117 126 140 149 134 117 104 101 102 93 72 57 54 47 49 52 73 71 74 66 56 41 50 25 27 20 29 2 1 3 4 12 8 2
201 158 200 198 275 53 221 194 120 114 94 103 114 119 128 143 160 153 113 110 114 107 93 100 105 83 59 50 62 44 59 83 82 65 63 70 40 40 34 23 17 27 3 4 7 14 15 12 4
153 168 124 10 236 245 235 236 211 192 169 156 160 169 174 156 137 130 120 107 98 93 91 96 80 81 71 51 56 61 62 93 89 71 66 78 53 34 37 27 19 20 7 5 5 22 13 16 12
338 301 248 168 151 210 294 257 208 183 184 187 199 184 182 173 149 135 124 109 103 100 98 97 91 85 67 59 56 64 62 91 89 78 67 78 62 44 46 34 27 21 12 5 3 25 24 23 11
201 210 188 139 268 237 162 270 279 179 190 191 203 202 183 166 159 152 147 142 124 111 102 108 106 102 98 80 81 73 71 91 92 93 95 82 69 51 53 34 32 20 10 9 10 32 25 27 19